CZ-6A DEB, 61127

Orbit data source: Space-Track

CZ-6A DEB, 61127 is space debris in LEO originally from a launch on Tue, 06 Aug 2024 UTC launched from the Taiyaun Space Center, China (TSC). Debris objects in space refer to the collection of defunct objects orbiting the Earth. Examples of debris include non-operational satellites, rocket bodies, and fragments generated from explosions, collisions, or faulty payload assembly.

Loading next visibility...
Identifier
61127, 2024-140PV
Orbit
LEO
Country
Flag of CNCN / PRC
Related business
Manufacturer
SAST
Mission
Spacecraft
Bus & Motor
Unknown
Mass
Unknown
Launch date (UTC)
2024-08-06 (2 years ago)
Launch vehicle
Unknown
Launch site
Taiyaun Space Center, China (TSC)
Object type
Payload
Rocket body
Debris
Shape & HBR
Unknown shape, 0.1 m
Radar Cross Section
Medium (>0.1 m² and <1 m²)

Expand to show TLE details & history
Last TLE update: 14 hours ago

TLE from 14 hours ago
0 CZ-6A DEB
1 61127U 24140PV  26171.28314282  .00000965  00000-0  21876-3 0  9992
2 61127  89.0497 274.3958 0085894 260.5769  98.5722 14.53093036 96825
Epoch: 2026-06-20T06:47Z
TLE epoch observation values (Epoch: 2026-06-20T06:47:43.539Z)
Latitude
-0.00004°
Longitude
-96.0356°
Altitude
728.26 km
Speed
7.486 km/s
True Right ascension
18h 17m 34s
True Declination
0° 00' 00"
Sunlit
Object was in full shadow at epoch
Visualization orbit readout
Latitude
Unknown
Longitude
Unknown
Altitude
Unknown
Speed
Unknown
Apparent Right ascension
Unknown
Apparent Declination
Unknown
Sunlit
N/A
Visualization observer readout
Local Sidereal Time
07:24:34
Azimuth
Unknown
Elevation
Unknown
Doppler factor
Unknown
Orbital elements
Apogee altitude
773.372 km
Perigee altitude
651.564 km
Semi-major axis
7,090.605 km
Eccentricity
0.00859
Inclination
89.0497°
RAAN
274.3958°
Arg. of periapsis
260.5769°
True anomaly
99.54388°
Mean anomaly
98.5722°
Eccentric anomaly
99.0582°
Mean motion
3.63512 °/min
Orbital period
99.03 mins
BSTAR
0.00021876
Loading maneuver chart data...
Computing Atmospheric mass density...
Loading historical data...
Loading historical data...
Loading historical data...
Loading historical data...
Loading historical data...
Loading historical data...
Loading historical data...

Documentation

Showing up to 5 results
|